| time (UTC) | temp F | wind direction | speed MPH | gust MPH | rain 1hr in | rain 24hr in | rain mn in | humidity % | barometer mb |
| 20260510123018 | 54 | 9 | 0.0 | 0.0 | 0.00 | 0.00 | 0.00 | 64 | 1015.1 |
| 20260510121514 | 54 | 9 | 0.0 | 0.0 | 0.00 | 0.02 | 0.00 | 63 | 1015.1 |
| 20260510120013 | 54 | 9 | 0.0 | 2.0 | 0.00 | 0.02 | 0.00 | 64 | 1015.1 |
| 20260510114512 | 54 | 360 | 0.0 | 0.0 | 0.00 | 0.02 | 0.00 | 65 | 1014.8 |
| 20260510113027 | 54 | 360 | 0.0 | 0.0 | 0.00 | 0.02 | 0.00 | 66 | 1014.6 |
| 20260510111524 | 54 | 360 | 0.0 | 0.0 | 0.00 | 0.02 | 0.00 | 70 | 1014.1 |
| 20260510110034 | 54 | 9 | 0.0 | 2.0 | 0.00 | 0.02 | 0.00 | 68 | 1013.9 |
| 20260510104523 | 55 | 5 | 0.0 | 3.0 | 0.00 | 0.02 | 0.00 | 69 | 1013.7 |
| 20260510103017 | 55 | 360 | 1.0 | 3.0 | 0.00 | 0.03 | 0.00 | 70 | 1013.2 |
| 20260510101516 | 55 | 340 | 0.0 | 3.0 | 0.00 | 0.04 | 0.00 | 72 | 1013.0 |
| 20260510100012 | 56 | 352 | 0.0 | 0.0 | 0.00 | 0.05 | 0.00 | 71 | 1012.7 |
| 20260510094524 | 56 | 352 | 0.0 | 3.0 | 0.00 | 0.06 | 0.00 | 70 | 1012.6 |
| 20260510093027 | 56 | 351 | 1.0 | 3.0 | 0.00 | 0.07 | 0.00 | 69 | 1012.3 |
| 20260510091524 | 57 | 13 | 2.0 | 4.0 | 0.00 | 0.07 | 0.00 | 69 | 1012.1 |
| 20260510090020 | 58 | 350 | 1.0 | 3.0 | 0.00 | 0.08 | 0.00 | 69 | 1011.8 |
| 20260510084519 | 58 | 360 | 3.0 | 9.0 | 0.00 | 0.08 | 0.00 | 71 | 1011.4 |
| 20260510083023 | 58 | 11 | 3.0 | 6.0 | 0.00 | 0.08 | 0.00 | 73 | 1010.9 |
| 20260510081526 | 58 | 5 | 1.0 | 2.0 | 0.00 | 0.09 | 0.00 | 74 | 1010.7 |
| 20260510080026 | 57 | 35 | 0.0 | 0.0 | 0.00 | 0.11 | 0.00 | 75 | 1010.7 |
| 20260510074524 | 58 | 91 | 0.0 | 0.0 | 0.00 | 0.13 | 0.00 | 73 | 1010.8 |
| 20260510073029 | 58 | 336 | 0.0 | 2.0 | 0.00 | 0.15 | 0.00 | 73 | 1010.9 |
| 20260510071531 | 59 | 163 | 0.0 | 1.0 | 0.00 | 0.17 | 0.00 | 74 | 1010.7 |
| 20260510070025 | 60 | 155 | 0.0 | 0.0 | 0.00 | 0.18 | 0.00 | 69 | 1010.8 |
| 20260510064523 | 61 | 263 | 0.0 | 0.0 | 0.00 | 0.20 | 0.00 | 68 | 1010.7 |
| 20260510063026 | 62 | 263 | 0.0 | 6.0 | 0.00 | 0.21 | 0.00 | 66 | 1010.7 |
| 20260510061526 | 62 | 259 | 3.0 | 10.0 | 0.00 | 0.22 | 0.00 | 66 | 1010.8 |
| 20260510060033 | 61 | 321 | 3.0 | 9.0 | 0.00 | 0.22 | 0.00 | 70 | 1011.1 |
| 20260510054526 | 60 | 241 | 3.0 | 7.0 | 0.00 | 0.22 | 0.00 | 73 | 1011.1 |
| 20260510053022 | 60 | 179 | 1.0 | 4.0 | 0.00 | 0.22 | 0.00 | 74 | 1010.9 |
| 20260510051526 | 60 | 188 | 0.0 | 2.0 | 0.00 | 0.23 | 0.00 | 74 | 1010.7 |
| 20260510050026 | 60 | 190 | 0.0 | 2.0 | 0.00 | 0.23 | 0.00 | 73 | 1010.6 |
| 20260510044531 | 60 | 213 | 1.0 | 2.0 | 0.00 | 0.24 | 0.00 | 72 | 1010.5 |
| 20260510043028 | 60 | 190 | 0.0 | 3.0 | 0.00 | 0.24 | 0.00 | 71 | 1010.4 |
| 20260510041526 | 60 | 180 | 1.0 | 4.0 | 0.00 | 0.24 | 0.00 | 70 | 1010.3 |
| 20260510040026 | 61 | 178 | 1.0 | 4.0 | 0.00 | 0.24 | 0.00 | 69 | 1010.1 |
| 20260510034522 | 61 | 147 | 1.0 | 4.0 | 0.00 | 0.24 | 0.24 | 68 | 1010.0 |
| 20260510033022 | 62 | 186 | 0.0 | 2.0 | 0.00 | 0.24 | 0.24 | 67 | 1010.0 |
| 20260510031526 | 62 | 184 | 0.0 | 2.0 | 0.00 | 0.24 | 0.24 | 66 | 1009.8 |
| 20260510030027 | 63 | 205 | 0.0 | 2.0 | 0.00 | 0.24 | 0.24 | 65 | 1009.8 |
| 20260510024526 | 63 | 209 | 0.0 | 4.0 | 0.00 | 0.24 | 0.24 | 64 | 1009.8 |
| 20260510023026 | 64 | 217 | 0.0 | 3.0 | 0.00 | 0.24 | 0.24 | 63 | 1009.7 |
| 20260510021524 | 64 | 201 | 0.0 | 4.0 | 0.00 | 0.24 | 0.24 | 62 | 1009.5 |
| 20260510020022 | 65 | 221 | 1.0 | 5.0 | 0.00 | 0.24 | 0.24 | 61 | 1009.3 |
| 20260510014523 | 65 | 173 | 1.0 | 5.0 | 0.00 | 0.24 | 0.24 | 60 | 1009.1 |
| 20260510013028 | 66 | 203 | 2.0 | 4.0 | 0.00 | 0.24 | 0.24 | 59 | 1008.9 |
| 20260510011534 | 66 | 181 | 2.0 | 4.0 | 0.00 | 0.25 | 0.24 | 58 | 1008.6 |
| 20260510010035 | 67 | 179 | 2.0 | 8.0 | 0.00 | 0.25 | 0.24 | 56 | 1008.7 |
| 20260510004526 | 68 | 244 | 2.0 | 9.0 | 0.00 | 0.26 | 0.24 | 55 | 1008.6 |
| 20260510003025 | 68 | 222 | 2.0 | 9.0 | 0.00 | 0.26 | 0.24 | 53 | 1008.3 |
| 20260510001526 | 69 | 275 | 4.0 | 16.0 | 0.00 | 0.26 | 0.24 | 52 | 1008.1 |
| 20260510000022 | 69 | 210 | 3.0 | 18.0 | 0.00 | 0.26 | 0.24 | 52 | 1007.9 |
| 20260509234528 | 69 | 215 | 4.0 | 13.0 | 0.00 | 0.26 | 0.24 | 51 | 1007.8 |
| 20260509233028 | 70 | 229 | 3.0 | 12.0 | 0.00 | 0.26 | 0.24 | 50 | 1007.9 |
| 20260509231532 | 70 | 293 | 5.0 | 18.0 | 0.00 | 0.26 | 0.24 | 48 | 1007.6 |
| 20260509230027 | 70 | 245 | 10.0 | 18.0 | 0.00 | 0.26 | 0.24 | 48 | 1007.7 |
| 20260509224526 | 70 | 238 | 8.0 | 14.0 | 0.00 | 0.26 | 0.24 | 51 | 1007.6 |
| 20260509223023 | 70 | 254 | 4.0 | 13.0 | 0.00 | 0.26 | 0.24 | 52 | 1007.4 |
| 20260509221551 | 70 | 202 | 8.0 | 15.0 | 0.00 | 0.26 | 0.24 | 53 | 1007.5 |
| 20260509220029 | 70 | 214 | 7.0 | 15.0 | 0.00 | 0.26 | 0.24 | 53 | 1007.6 |
| 20260509214527 | 70 | 263 | 5.0 | 13.0 | 0.00 | 0.26 | 0.24 | 53 | 1007.7 |
| 20260509213028 | 71 | 246 | 6.0 | 14.0 | 0.00 | 0.26 | 0.24 | 53 | 1007.9 |
| 20260509211526 | 71 | 207 | 5.0 | 15.0 | 0.00 | 0.26 | 0.24 | 52 | 1008.0 |
| 20260509210025 | 71 | 174 | 8.0 | 17.0 | 0.00 | 0.26 | 0.24 | 51 | 1007.9 |
| 20260509204523 | 71 | 254 | 5.0 | 14.0 | 0.00 | 0.26 | 0.24 | 52 | 1008.0 |
| 20260509203022 | 71 | 227 | 5.0 | 20.0 | 0.00 | 0.26 | 0.24 | 53 | 1008.2 |
| 20260509201520 | 70 | 252 | 7.0 | 15.0 | 0.00 | 0.26 | 0.24 | 54 | 1008.2 |
| 20260509200018 | 70 | 130 | 6.0 | 19.0 | 0.00 | 0.26 | 0.24 | 55 | 1008.5 |
| 20260509194516 | 70 | 198 | 5.0 | 12.0 | 0.00 | 0.26 | 0.24 | 56 | 1008.5 |
| 20260509193012 | 70 | 232 | 4.0 | 12.0 | 0.00 | 0.26 | 0.24 | 58 | 1008.5 |
| 20260509191527 | 69 | 277 | 4.0 | 13.0 | 0.00 | 0.26 | 0.24 | 60 | 1008.7 |
| 20260509190040 | 69 | 206 | 3.0 | 13.0 | 0.00 | 0.26 | 0.24 | 60 | 1008.8 |
| 20260509184531 | 68 | 237 | 5.0 | 12.0 | 0.00 | 0.26 | 0.24 | 60 | 1008.8 |
| 20260509183027 | 67 | 254 | 4.0 | 12.0 | 0.00 | 0.26 | 0.24 | 63 | 1009.0 |
| 20260509181516 | 66 | 252 | 4.0 | 10.0 | 0.00 | 0.26 | 0.24 | 62 | 1009.0 |
| 20260509180013 | 67 | 208 | 4.0 | 13.0 | 0.00 | 0.26 | 0.24 | 67 | 1009.2 |
| 20260509174512 | 65 | 220 | 4.0 | 15.0 | 0.00 | 0.26 | 0.24 | 69 | 1009.3 |
| 20260509173029 | 64 | 142 | 3.0 | 15.0 | 0.00 | 0.26 | 0.24 | 66 | 1009.3 |
| 20260509171526 | 64 | 236 | 6.0 | 12.0 | 0.00 | 0.26 | 0.24 | 68 | 1009.4 |
| 20260509170030 | 63 | 248 | 5.0 | 11.0 | 0.00 | 0.26 | 0.24 | 70 | 1009.4 |
| 20260509164519 | 63 | 207 | 5.0 | 11.0 | 0.00 | 0.26 | 0.24 | 72 | 1009.5 |
| 20260509163029 | 62 | 228 | 1.0 | 8.0 | 0.00 | 0.26 | 0.24 | 75 | 1009.5 |
| 20260509161526 | 62 | 229 | 4.0 | 11.0 | 0.00 | 0.26 | 0.24 | 74 | 1009.6 |
| 20260509160026 | 62 | 172 | 3.0 | 8.0 | 0.00 | 0.26 | 0.24 | 75 | 1009.4 |
| 20260509154527 | 61 | 195 | 3.0 | 10.0 | 0.00 | 0.26 | 0.24 | 77 | 1009.4 |
| 20260509153029 | 60 | 205 | 3.0 | 11.0 | 0.00 | 0.26 | 0.24 | 81 | 1009.4 |
| 20260509151522 | 59 | 165 | 4.0 | 10.0 | 0.00 | 0.26 | 0.24 | 84 | 1009.2 |
| 20260509150027 | 58 | 208 | 4.0 | 11.0 | 0.00 | 0.26 | 0.24 | 84 | 1009.1 |
| 20260509144529 | 58 | 225 | 2.0 | 8.0 | 0.00 | 0.26 | 0.24 | 87 | 1009.0 |
| 20260509143026 | 57 | 268 | 3.0 | 9.0 | 0.00 | 0.26 | 0.24 | 87 | 1009.0 |
| 20260509141534 | 57 | 185 | 2.0 | 7.0 | 0.00 | 0.26 | 0.24 | 88 | 1009.0 |
| 20260509140033 | 56 | 213 | 2.0 | 7.0 | 0.00 | 0.26 | 0.24 | 91 | 1008.9 |
| 20260509134508 | 55 | 227 | 2.0 | 7.0 | 0.00 | 0.26 | 0.24 | 92 | 1009.1 |
| 20260509133030 | 55 | 191 | 1.0 | 5.0 | 0.00 | 0.26 | 0.24 | 93 | 1009.2 |
| 20260509131522 | 54 | 189 | 3.0 | 6.0 | 0.02 | 0.26 | 0.24 | 94 | 1009.0 |
| 20260509130039 | 53 | 223 | 2.0 | 5.0 | 0.02 | 0.26 | 0.24 | 94 | 1009.0 |
| 20260509124527 | 53 | 262 | 0.0 | 3.0 | 0.02 | 0.26 | 0.24 | 94 | 1009.1 |